Regional Weather Roundup
Issued by NWS Northern Indiana

Home | Current Version | Previous Version | Graphics & Text | Print | Product List | Glossary On
Versions: 1 2 3 4 5 6 7 8 9 10 11 12 13 14 15 16 17 18 19 20 21 22 23 24 25 26 27 28 29 30 31 32 33 34 35 36 37 38 39 40 41 42 43 44 45 46 47 48 49 50
007
ASUS43 KIWX 220800
RWRIWX

KIWX WEATHER ROUNDUP
NATIONAL WEATHER SERVICE NORTHERN INDIANA
300 AM EST MON JAN 22 2018

NOTE: "FAIR" INDICATES FEW OR NO CLOUDS BELOW 12,000 FEET WITH NO
SIGNIFICANT WEATHER AND/OR OBSTRUCTIONS TO VISIBILITY.

* THESE STATIONS ARE NOT UNDER NWS QUALITY CONTROL. THEY ALSO MAY NOT
  REPORT WEATHER SUCH AS PRECIPITATION OR FOG.

INZ001>027-220900-
NORTHERN INDIANA

CITY           SKY/WX    TMP DP  RH WIND       PRES   REMARKS
VALPARAISO     LGT RAIN  47  47 100 SE7       29.81F FOG
KNOX*          CLOUDY    45  45 100 SE8       29.82S
SOUTH BEND     LGT RAIN  45  44  97 SE5       29.84F
GOSHEN         LGT RAIN  46  45  96 SE8       29.84F
MONTICELLO*    CLOUDY    47  46  95 S5        29.82S
FORT WAYNE     DRZL/FOG  46  45  96 SE7       29.88F VSB 1/4
PERU/GRISSOM   MOCLDY    47  47 100 S9        29.84F

$$
INZ028>050-220900-
CENTRAL INDIANA

CITY           SKY/WX    TMP DP  RH WIND       PRES   REMARKS
LAFAYETTE      CLOUDY    51  49  92 S8        29.81F
MUNCIE*        CLOUDY    55  47  74 S14G21    29.88F
INDIANAPOLIS   MOCLDY    48  47  96 SE7       29.88F

$$
MIZ043>046-050>051-056>058-064>065-071>073-077>080-220900-
SOUTHWEST LOWER MICHIGAN

CITY           SKY/WX    TMP DP  RH WIND       PRES   REMARKS
BATTLE CREEK   FOG       41  41 100 SE7       29.87F VSB 1/4
BENTON HARBOR  FOG       46  45  96 E6        29.82F VSB 1/2
HILLSDALE*     RAIN      41  41 100 SE7       29.88F VSB 1/4
HOLLAND        FOG       39  38  96 E8        29.85F VSB 1
GRAND RAPIDS   CLOUDY    37  36  96 E8        29.88S FOG
KALAMAZOO      FOG       43  41  93 CALM      29.86F VSB 1/4
STURGIS*       RAIN      47  47  98 S8        29.85F
THREE RIVERS*  HVY RAIN  43  43 100 CALM      29.86F VSB 1/4

$$
OHZ001>008-015>018-024>025-220900-
NORTHWEST OHIO

CITY           SKY/WX    TMP DP  RH WIND       PRES   REMARKS
DEFIANCE       LGT RAIN  46  45  96 E3        29.90F FOG
FINDLAY        CLOUDY    47  45  93 SE7       29.92F FOG
TOLEDO EXPRESS LGT RAIN  45  45 100 S5        29.92S FOG
TOLEDO METCALF RAIN      43  43 100 S6        29.94F VSB 1
LIMA           LGT RAIN  49  48  97 S9        29.92F

$$
AND FOR LAKE MICHIGAN COASTAL AND OPEN LAKE BUOY OBSERVATIONS

STATION/POSITION TEMP    WIND        PRES    VSBY  WAVE
                 AIR SEA DIR/SP/G                  HT/PER
                 (F)     (DEG/KT/KT) (MB)    (MI)  (FT/S)
CALUMET HARBOR    40     110/  3/  3 1008.2F
MICHIGAN CITY     47     140/ 10/ 12   N/A
BURNS HARBOR      50     160/ 14/ 17 1009.5F
SAINT JOSEPH      47     150/  4/  7 1011.2

$$
&&




USA.gov is the U.S. government's official web portal to all federal, state and local government web resources and services.